FW8061 Weather Reports


Display with metric or nautical units.
time (UTC)temp
F
wind
direction
speed
MPH
gust
MPH
rain 1hr
in
rain 24hr
in
rain mn
in
humidity
%
barometer
mb
20260504050018 46 191 2.0 5.0 0.00 0.00 0.00 58 1006.4
20260504045018 47 207 2.0 4.0 0.00 0.00 0.00 57 1006.5
20260504044019 46 200 1.0 3.0 0.00 0.00 0.00 56 1006.5
20260504043725 47 0.0 0.0 0.00 0.00 0.00 55 1006.7
20260504040019 47 206 3.0 6.0 0.00 0.00 0.00 52 1006.6
20260504035016 47 204 3.0 5.0 0.00 0.00 0.00 52 1006.7
20260504034020 48 203 2.0 5.0 0.00 0.00 0.00 51 1006.7
20260504033021 48 201 2.0 6.0 0.00 0.00 0.00 51 1006.7
20260504032037 48 207 3.0 8.0 0.00 0.00 0.00 50 1006.8
20260504031038 49 212 2.0 5.0 0.00 0.00 0.00 50 1006.8
20260504030018 49 215 2.0 5.0 0.00 0.00 0.00 50 1006.9
20260504025100 49 206 3.0 4.0 0.00 0.00 0.00 50 1007.0
20260504024018 50 218 2.0 6.0 0.00 0.00 0.00 50 1007.0
20260504023039 50 225 3.0 8.0 0.00 0.00 0.00 49 1007.1
20260504022019 50 220 2.0 5.0 0.00 0.00 0.00 49 1007.2
20260504021018 50 212 2.0 6.0 0.00 0.00 0.00 50 1007.2
20260504020018 50 217 2.0 5.0 0.00 0.00 0.00 49 1007.3
20260504015018 51 217 2.0 3.0 0.00 0.00 0.00 48 1007.4
20260504014020 51 214 2.0 5.0 0.00 0.00 0.00 47 1007.4
20260504013019 51 212 2.0 6.0 0.00 0.00 0.00 45 1007.4
20260504012019 51 223 2.0 5.0 0.00 0.00 0.00 45 1007.4
20260504011019 51 235 3.0 10.0 0.00 0.00 0.00 45 1007.4
20260504010036 52 207 2.0 5.0 0.00 0.00 0.00 44 1007.3
20260504005020 52 224 3.0 7.0 0.00 0.00 0.00 43 1007.2
20260504004020 52 212 2.0 6.0 0.00 0.00 0.00 42 1007.2
20260504003038 52 215 3.0 6.0 0.00 0.00 0.00 41 1007.1
20260504002020 52 205 3.0 7.0 0.00 0.00 0.00 41 1007.1
20260504001017 52 240 1.0 3.0 0.00 0.00 0.00 38 1007.0
20260504000017 53 244 2.0 5.0 0.00 0.00 0.00 38 1006.9
20260503235020 53 277 2.0 6.0 0.00 0.00 0.00 36 1006.9
20260503234038 53 267 2.0 6.0 0.00 0.00 0.00 36 1006.8
20260503233018 54 286 4.0 8.0 0.00 0.00 0.00 35 1006.8
20260503232023 54 300 2.0 6.0 0.00 0.00 0.00 35 1006.8
20260503231039 54 299 4.0 9.0 0.00 0.00 0.00 35 1006.8
20260503230038 54 245 1.0 4.0 0.00 0.00 0.00 35 1006.7
20260503225019 54 308 3.0 6.0 0.00 0.00 0.00 34 1006.8
20260503224018 54 313 4.0 8.0 0.00 0.00 0.00 34 1006.8
20260503223019 54 310 5.0 9.0 0.00 0.00 0.00 34 1006.8
20260503222019 54 298 4.0 8.0 0.00 0.00 0.00 35 1006.9
20260503221019 54 307 3.0 8.0 0.00 0.00 0.00 36 1006.8
20260503220020 54 314 4.0 9.0 0.00 0.00 0.00 36 1006.8
20260503215039 55 277 4.0 7.0 0.00 0.00 0.00 36 1006.8
20260503214017 54 292 3.0 8.0 0.00 0.00 0.00 37 1006.9
20260503213021 54 288 4.0 9.0 0.00 0.00 0.00 37 1007.0
20260503212041 54 300 3.0 10.0 0.00 0.00 0.00 37 1007.0
20260503211017 54 307 4.0 9.0 0.00 0.00 0.00 37 1006.9
20260503210021 54 313 5.0 9.0 0.00 0.00 0.00 37 1006.9
20260503205018 54 272 4.0 9.0 0.00 0.00 0.00 37 1007.0
20260503204021 54 279 4.0 9.0 0.00 0.00 0.00 37 1007.0
20260503203019 53 295 3.0 7.0 0.00 0.00 0.00 40 1007.1
20260503202019 53 302 4.0 12.0 0.00 0.00 0.00 38 1007.2
20260503201021 53 286 3.0 9.0 0.00 0.00 0.00 40 1007.3
20260503200022 53 314 5.0 13.0 0.00 0.00 0.00 39 1007.4
20260503195018 53 305 4.0 10.0 0.00 0.00 0.00 39 1007.4
20260503194018 53 299 2.0 9.0 0.00 0.00 0.00 39 1007.5
20260503193018 52 288 4.0 9.0 0.00 0.00 0.00 40 1007.7
20260503192020 52 294 4.0 7.0 0.00 0.00 0.00 41 1007.9
20260503191021 51 333 6.0 10.0 0.00 0.00 0.00 41 1008.1
20260503190019 51 327 5.0 10.0 0.00 0.00 0.00 42 1008.1
20260503185019 51 331 5.0 10.0 0.00 0.00 0.00 43 1008.2
20260503184020 52 317 5.0 9.0 0.00 0.00 0.00 43 1008.3
20260503183020 52 248 3.0 9.0 0.00 0.00 0.00 44 1008.5
20260503182041 50 326 5.0 10.0 0.00 0.00 0.00 45 1008.7
20260503181017 49 322 4.0 9.0 0.00 0.00 0.00 48 1008.8
20260503180021 49 323 4.0 7.0 0.00 0.00 0.00 49 1008.9
20260503175017 49 282 4.0 7.0 0.00 0.00 0.00 48 1008.9
20260503174020 50 305 3.0 9.0 0.00 0.00 0.00 49 1008.9
20260503173018 50 305 4.0 10.0 0.00 0.00 0.00 48 1009.0
20260503172018 50 286 4.0 11.0 0.00 0.00 0.00 47 1009.2
20260503171019 49 281 3.0 9.0 0.00 0.00 0.00 50 1009.3
20260503131039 44 20 1.0 3.0 0.00 0.00 0.00 64 1011.8
20260503081031 40 337 2.0 2.0 0.00 0.00 0.00 86 1011.4
20260503072053 41 337 2.0 3.0 0.00 0.00 0.00 82 1011.5
20260503071031 41 339 2.0 3.0 0.00 0.00 0.00 82 1011.6